Tracking 19293 objects as of 21-Nov-2018
HD Live streaming from Space Station
objects crossing your sky now

CLUSTER II-FM7

Track CLUSTER II-FM7 now!
CLUSTER II-FM7 is classified as:


NORAD ID: 26411
Int'l Code: 2000-041B
Perigee: 29,839.6 km
Apogee: 102,964.2 km
Inclination: 130.3 °
Period: 3,256.2 minutes
Semi major axis: 72772 km
RCS: 1.5887 m2 (large)
Launch date: July 16, 2000
Source: European Space Agency (ESA)
Launch site: TYURATAM MISSILE AND SPACE COMPLEX (TTMTR)
aabbcc
Your satellite tracking list
Your tracking list is empty




NASA's NSSDC Master Catalog

Two Line Element Set (TLE):
1 26411U 00041B   18325.01138874 +.00000000 +00000-0 +00000-0 0  9990
2 26411 130.2863 338.4592 5024159 174.4359 000.7435 00.44223027008081
Source of the keplerian elements: AFSPC